Location: Estes Par
(40.3770°N, 10.0000°W)
Time: 10:43:58
(UTC-06:00)

Tiangong 2 - Visible Passes

Search period start: 16 July 2018 00:00
Search period end: 26 July 2018 00:00
Orbit: 386 x 394 km, 42.8° (Epoch: 16 July)

Date Brightness Start Highest point End Pass type
(mag) Time Alt. Az. Time Alt. Az. Time Alt. Az.
16 Jul 1.8 15:37:38 10° W 15:40:45 52° N 15:43:14 15° ENE visible
16 Jul 3.7 17:14:37 10° WNW 17:15:33 18° WNW 17:15:33 18° WNW visible
17 Jul 1.6 14:39:52 10° W 14:43:00 59° N 14:46:08 10° ENE visible
17 Jul 1.4 16:16:55 10° WNW 16:20:04 61° N 16:20:19 59° NE visible
18 Jul 1.7 15:19:13 10° WNW 15:22:20 53° N 15:25:03 13° E visible
18 Jul 3.3 16:56:08 10° WNW 16:57:21 21° W 16:57:21 21° W visible
19 Jul 1.0 15:58:25 10° WNW 16:01:36 84° NNE 16:02:04 62° E visible
20 Jul 1.4 15:00:43 10° WNW 15:03:53 64° N 15:06:46 12° E visible
20 Jul 3.2 16:37:42 10° W 16:39:05 21° W 16:39:05 21° W visible
21 Jul 1.1 15:39:54 10° WNW 15:43:03 61° SSW 15:43:48 44° SE visible
22 Jul 1.1 14:42:10 10° WNW 14:45:21 89° NNE 14:48:32 10° ESE visible
22 Jul 3.3 16:19:30 10° W 16:20:51 17° WSW 16:20:51 17° WSW visible
23 Jul 2.1 15:21:28 10° W 15:24:24 34° SSW 15:25:37 24° SSE visible
24 Jul 3.8 16:02:10 10° SW 16:02:44 11° SW 16:02:44 11° SW visible
25 Jul 3.1 15:03:18 10° W 15:05:37 19° SSW 15:07:35 12° S visible
